| time (UTC) | temp F | wind direction | speed MPH | gust MPH | rain 1hr in | rain 24hr in | rain mn in | humidity % | barometer mb |
| 20260508064814 | 49 | 250 | 4.0 | 9.0 | 0.00 | 0.00 | 0.00 | 64 | 1011.3 |
| 20260508064312 | 49 | 265 | 4.0 | 10.0 | 0.00 | 0.00 | 0.00 | 64 | 1011.4 |
| 20260508063809 | 49 | 258 | 4.0 | 9.0 | 0.00 | 0.00 | 0.00 | 64 | 1011.2 |
| 20260508063307 | 49 | 223 | 2.0 | 7.0 | 0.00 | 0.00 | 0.00 | 63 | 1011.3 |
| 20260508062804 | 49 | 265 | 4.0 | 9.0 | 0.00 | 0.00 | 0.00 | 64 | 1011.3 |
| 20260508062305 | 49 | 254 | 4.0 | 5.0 | 0.00 | 0.00 | 0.00 | 64 | 1011.4 |
| 20260508061758 | 48 | 226 | 1.0 | 6.0 | 0.00 | 0.00 | 0.00 | 64 | 1011.5 |
| 20260508061255 | 48 | 256 | 2.0 | 4.0 | 0.00 | 0.00 | 0.00 | 65 | 1011.2 |
| 20260508060752 | 48 | 205 | 3.0 | 6.0 | 0.00 | 0.00 | 0.00 | 64 | 1011.1 |
| 20260508060250 | 48 | 294 | 2.0 | 11.0 | 0.00 | 0.00 | 0.00 | 64 | 1011.4 |
| 20260508055745 | 48 | 261 | 2.0 | 5.0 | 0.00 | 0.00 | 0.00 | 65 | 1011.5 |
| 20260508055242 | 48 | 213 | 2.0 | 4.0 | 0.00 | 0.00 | 0.00 | 65 | 1011.5 |
| 20260508054739 | 48 | 181 | 1.0 | 5.0 | 0.00 | 0.00 | 0.00 | 65 | 1011.5 |
| 20260508054237 | 48 | 308 | 0.0 | 5.0 | 0.00 | 0.00 | 0.00 | 65 | 1011.6 |
| 20260508053734 | 48 | 232 | 2.0 | 5.0 | 0.00 | 0.00 | 0.00 | 65 | 1011.5 |
| 20260508053231 | 48 | 232 | 0.0 | 4.0 | 0.00 | 0.00 | 0.00 | 64 | 1011.6 |
| 20260508052728 | 49 | 290 | 0.0 | 4.0 | 0.00 | 0.00 | 0.00 | 64 | 1011.7 |
| 20260508052225 | 49 | 273 | 5.0 | 6.0 | 0.00 | 0.00 | 0.00 | 64 | 1011.7 |
| 20260508051721 | 49 | 255 | 2.0 | 6.0 | 0.00 | 0.00 | 0.00 | 63 | 1011.8 |
| 20260508051217 | 49 | 211 | 0.0 | 5.0 | 0.00 | 0.00 | 0.00 | 63 | 1011.7 |
| 20260508050713 | 49 | 275 | 4.0 | 5.0 | 0.00 | 0.00 | 0.00 | 63 | 1011.9 |
| 20260508050211 | 49 | 265 | 2.0 | 3.0 | 0.00 | 0.00 | 0.00 | 63 | 1011.9 |
| 20260508045706 | 49 | 255 | 0.0 | 6.0 | 0.00 | 0.00 | 0.00 | 63 | 1011.7 |
| 20260508045204 | 49 | 174 | 2.0 | 5.0 | 0.00 | 0.00 | 0.00 | 62 | 1011.9 |
| 20260508044701 | 49 | 239 | 3.0 | 5.0 | 0.00 | 0.00 | 0.00 | 63 | 1011.8 |
| 20260508044157 | 49 | 11 | 0.0 | 6.0 | 0.00 | 0.00 | 0.00 | 63 | 1011.8 |
| 20260508043654 | 49 | 251 | 4.0 | 5.0 | 0.00 | 0.00 | 0.00 | 62 | 1011.8 |
| 20260508043152 | 49 | 263 | 4.0 | 6.0 | 0.00 | 0.00 | 0.00 | 62 | 1011.9 |
| 20260508042648 | 49 | 32 | 0.0 | 6.0 | 0.00 | 0.00 | 0.00 | 62 | 1011.9 |
| 20260508042145 | 49 | 191 | 0.0 | 4.0 | 0.00 | 0.00 | 0.00 | 62 | 1011.9 |
| 20260508041642 | 49 | 274 | 4.0 | 6.0 | 0.00 | 0.00 | 0.00 | 62 | 1012.0 |
| 20260508041139 | 49 | 252 | 4.0 | 9.0 | 0.00 | 0.00 | 0.00 | 62 | 1011.9 |
| 20260508040635 | 49 | 296 | 3.0 | 7.0 | 0.00 | 0.00 | 0.00 | 62 | 1012.0 |
| 20260508040133 | 49 | 209 | 1.0 | 6.0 | 0.00 | 0.00 | 0.00 | 62 | 1012.0 |
| 20260508035630 | 49 | 262 | 2.0 | 7.0 | 0.00 | 0.00 | 0.00 | 61 | 1012.0 |
| 20260508035127 | 49 | 232 | 3.0 | 8.0 | 0.00 | 0.00 | 0.00 | 61 | 1012.1 |
| 20260508034624 | 49 | 284 | 2.0 | 6.0 | 0.00 | 0.00 | 0.00 | 60 | 1011.9 |
| 20260508034121 | 49 | 219 | 3.0 | 6.0 | 0.00 | 0.00 | 0.00 | 60 | 1012.2 |
| 20260508033618 | 49 | 262 | 3.0 | 5.0 | 0.00 | 0.00 | 0.00 | 60 | 1012.1 |
| 20260508033116 | 49 | 239 | 2.0 | 9.0 | 0.00 | 0.00 | 0.00 | 59 | 1012.1 |
| 20260508032612 | 49 | 263 | 4.0 | 9.0 | 0.00 | 0.00 | 0.00 | 58 | 1012.1 |
| 20260508032110 | 49 | 207 | 3.0 | 12.0 | 0.00 | 0.00 | 0.00 | 57 | 1012.0 |
| 20260508031607 | 48 | 265 | 5.0 | 5.0 | 0.00 | 0.00 | 0.00 | 57 | 1012.1 |
| 20260508031103 | 48 | 227 | 0.0 | 4.0 | 0.00 | 0.00 | 0.00 | 57 | 1012.2 |
| 20260508030559 | 48 | 246 | 3.0 | 6.0 | 0.00 | 0.00 | 0.00 | 57 | 1012.1 |
| 20260508030058 | 47 | 276 | 3.0 | 6.0 | 0.00 | 0.00 | 0.00 | 59 | 1011.9 |
| 20260508025553 | 46 | 265 | 1.0 | 2.0 | 0.00 | 0.00 | 0.00 | 62 | 1012.2 |
| 20260508025051 | 46 | 265 | 2.0 | 3.0 | 0.00 | 0.00 | 0.00 | 62 | 1012.1 |
| 20260508024546 | 45 | 253 | 1.0 | 3.0 | 0.00 | 0.00 | 0.00 | 64 | 1012.1 |
| 20260508024044 | 45 | 170 | 0.0 | 2.0 | 0.00 | 0.00 | 0.00 | 67 | 1012.0 |
| 20260508023540 | 44 | 183 | 0.0 | 2.0 | 0.00 | 0.00 | 0.00 | 68 | 1012.0 |
| 20260508023038 | 44 | 135 | 0.0 | 2.0 | 0.00 | 0.00 | 0.00 | 69 | 1012.2 |
| 20260508022533 | 44 | 173 | 0.0 | 1.0 | 0.00 | 0.00 | 0.00 | 69 | 1011.9 |
| 20260508022031 | 44 | 130 | 0.0 | 2.0 | 0.00 | 0.00 | 0.00 | 70 | 1012.0 |
| 20260508021526 | 44 | 136 | 1.0 | 2.0 | 0.00 | 0.00 | 0.00 | 70 | 1011.8 |
| 20260508021022 | 44 | 154 | 1.0 | 2.0 | 0.00 | 0.00 | 0.00 | 70 | 1012.0 |
| 20260508020520 | 44 | 168 | 1.0 | 2.0 | 0.00 | 0.00 | 0.00 | 70 | 1011.8 |
| 20260508020018 | 44 | 119 | 0.0 | 2.0 | 0.00 | 0.00 | 0.00 | 69 | 1011.9 |
| 20260508015515 | 44 | 125 | 0.0 | 2.0 | 0.00 | 0.00 | 0.00 | 70 | 1011.8 |
| 20260508015012 | 44 | 147 | 2.0 | 2.0 | 0.00 | 0.00 | 0.00 | 68 | 1011.8 |
| 20260508014508 | 45 | 117 | 0.0 | 2.0 | 0.00 | 0.00 | 0.00 | 67 | 1011.8 |
| 20260508014005 | 45 | 198 | 0.0 | 2.0 | 0.00 | 0.00 | 0.00 | 67 | 1011.6 |
| 20260508013501 | 45 | 110 | 0.0 | 1.0 | 0.00 | 0.00 | 0.00 | 65 | 1011.9 |
| 20260508012958 | 45 | 113 | 1.0 | 1.0 | 0.00 | 0.00 | 0.00 | 65 | 1011.7 |
| 20260508012455 | 45 | 210 | 0.0 | 2.0 | 0.00 | 0.00 | 0.00 | 64 | 1011.7 |
| 20260508011952 | 45 | 143 | 0.0 | 3.0 | 0.00 | 0.00 | 0.00 | 63 | 1011.6 |
| 20260508011450 | 46 | 137 | 1.0 | 2.0 | 0.00 | 0.00 | 0.00 | 62 | 1011.7 |
| 20260508010947 | 46 | 124 | 2.0 | 2.0 | 0.00 | 0.00 | 0.00 | 59 | 1011.8 |
| 20260508010444 | 47 | 134 | 0.0 | 2.0 | 0.00 | 0.00 | 0.00 | 59 | 1011.6 |
| 20260508005942 | 47 | 151 | 2.0 | 3.0 | 0.00 | 0.00 | 0.00 | 58 | 1011.5 |
| 20260508005438 | 48 | 128 | 1.0 | 2.0 | 0.00 | 0.00 | 0.00 | 55 | 1011.4 |
| 20260508004935 | 48 | 102 | 0.0 | 2.0 | 0.00 | 0.00 | 0.00 | 52 | 1011.5 |
| 20260508004431 | 49 | 110 | 0.0 | 0.0 | 0.00 | 0.00 | 0.00 | 50 | 1011.5 |
| 20260508003928 | 50 | 119 | 0.0 | 1.0 | 0.00 | 0.00 | 0.00 | 48 | 1011.6 |
| 20260508003424 | 50 | 6 | 0.0 | 1.0 | 0.00 | 0.00 | 0.00 | 47 | 1011.6 |
| 20260508002922 | 51 | 275 | 2.0 | 3.0 | 0.00 | 0.00 | 0.00 | 45 | 1011.5 |
| 20260508002418 | 51 | 26 | 0.0 | 1.0 | 0.00 | 0.00 | 0.00 | 48 | 1011.5 |
| 20260508001914 | 51 | 89 | 0.0 | 1.0 | 0.00 | 0.00 | 0.00 | 45 | 1011.4 |
| 20260508001411 | 51 | 288 | 0.0 | 3.0 | 0.00 | 0.00 | 0.00 | 47 | 1011.5 |
| 20260508000907 | 52 | 74 | 2.0 | 3.0 | 0.00 | 0.00 | 0.00 | 46 | 1011.3 |
| 20260508000405 | 51 | 226 | 3.0 | 4.0 | 0.00 | 0.00 | 0.00 | 46 | 1011.3 |
| 20260507235900 | 52 | 182 | 0.0 | 4.0 | 0.00 | 0.00 | 0.00 | 43 | 1011.4 |
| 20260507235357 | 53 | 19 | 0.0 | 7.0 | 0.00 | 0.00 | 0.00 | 45 | 1011.2 |
| 20260507234854 | 53 | 314 | 0.0 | 6.0 | 0.00 | 0.00 | 0.00 | 45 | 1011.1 |
| 20260507234351 | 53 | 50 | 1.0 | 10.0 | 0.00 | 0.00 | 0.00 | 42 | 1011.2 |
| 20260507233848 | 53 | 316 | 2.0 | 7.0 | 0.00 | 0.00 | 0.00 | 42 | 1011.3 |
| 20260507233345 | 53 | 294 | 3.0 | 8.0 | 0.00 | 0.00 | 0.00 | 42 | 1011.1 |
| 20260507232843 | 53 | 210 | 3.0 | 5.0 | 0.00 | 0.00 | 0.00 | 41 | 1011.3 |
| 20260507232339 | 53 | 3 | 4.0 | 12.0 | 0.00 | 0.00 | 0.00 | 41 | 1011.2 |
| 20260507231837 | 54 | 22 | 0.0 | 7.0 | 0.00 | 0.00 | 0.00 | 43 | 1011.2 |
| 20260507231333 | 54 | 285 | 2.0 | 7.0 | 0.00 | 0.00 | 0.00 | 41 | 1011.3 |
| 20260507230829 | 55 | 250 | 7.0 | 15.0 | 0.00 | 0.00 | 0.00 | 39 | 1011.2 |
| 20260507230327 | 55 | 244 | 4.0 | 10.0 | 0.00 | 0.00 | 0.00 | 40 | 1011.2 |
| 20260507225827 | 55 | 237 | 9.0 | 11.0 | 0.00 | 0.00 | 0.00 | 39 | 1011.3 |
| 20260507225323 | 55 | 339 | 1.0 | 11.0 | 0.00 | 0.00 | 0.00 | 42 | 1011.4 |
| 20260507224819 | 55 | 306 | 3.0 | 13.0 | 0.00 | 0.00 | 0.00 | 40 | 1011.3 |
| 20260507224316 | 57 | 107 | 2.0 | 5.0 | 0.00 | 0.00 | 0.00 | 39 | 1011.3 |
| 20260507223812 | 57 | 268 | 3.0 | 5.0 | 0.00 | 0.00 | 0.00 | 37 | 1011.2 |
| 20260507223308 | 57 | 315 | 0.0 | 4.0 | 0.00 | 0.00 | 0.00 | 41 | 1011.5 |
| 20260507222806 | 57 | 234 | 0.0 | 9.0 | 0.00 | 0.00 | 0.00 | 38 | 1011.4 |
| 20260507222305 | 57 | 291 | 2.0 | 16.0 | 0.00 | 0.00 | 0.00 | 40 | 1011.0 |
| 20260507221759 | 57 | 250 | 2.0 | 7.0 | 0.00 | 0.00 | 0.00 | 38 | 1011.4 |
| 20260507221255 | 57 | 322 | 3.0 | 10.0 | 0.00 | 0.00 | 0.00 | 40 | 1011.5 |
| 20260507220751 | 57 | 275 | 3.0 | 16.0 | 0.00 | 0.00 | 0.00 | 38 | 1011.4 |
| 20260507220250 | 57 | 261 | 0.0 | 7.0 | 0.00 | 0.00 | 0.00 | 39 | 1011.4 |
| 20260507215746 | 57 | 7 | 2.0 | 10.0 | 0.00 | 0.00 | 0.00 | 38 | 1011.1 |
| 20260507215244 | 57 | 269 | 4.0 | 13.0 | 0.00 | 0.00 | 0.00 | 37 | 1011.1 |
| 20260507214740 | 57 | 239 | 2.0 | 7.0 | 0.00 | 0.00 | 0.00 | 39 | 1011.1 |
| 20260507214238 | 57 | 250 | 10.0 | 11.0 | 0.00 | 0.00 | 0.00 | 34 | 1011.2 |
| 20260507213733 | 57 | 252 | 4.0 | 14.0 | 0.00 | 0.00 | 0.00 | 38 | 1011.3 |
| 20260507213230 | 59 | 59 | 6.0 | 8.0 | 0.00 | 0.00 | 0.00 | 40 | 1011.1 |
| 20260507212726 | 59 | 4 | 3.0 | 5.0 | 0.00 | 0.00 | 0.00 | 41 | 1011.0 |
| 20260507212223 | 58 | 18 | 2.0 | 8.0 | 0.00 | 0.00 | 0.00 | 46 | 1011.1 |
| 20260507211720 | 57 | 336 | 3.0 | 21.0 | 0.00 | 0.00 | 0.00 | 46 | 1011.1 |
| 20260507211216 | 58 | 229 | 7.0 | 13.0 | 0.00 | 0.00 | 0.00 | 45 | 1011.0 |
| 20260507210713 | 58 | 219 | 9.0 | 11.0 | 0.00 | 0.00 | 0.00 | 43 | 1011.0 |
| 20260507210210 | 57 | 171 | 2.0 | 5.0 | 0.00 | 0.00 | 0.00 | 47 | 1011.0 |
| 20260507205706 | 57 | 249 | 4.0 | 8.0 | 0.00 | 0.00 | 0.00 | 44 | 1010.9 |
| 20260507205203 | 57 | 258 | 11.0 | 11.0 | 0.00 | 0.00 | 0.00 | 47 | 1010.5 |
| 20260507204659 | 56 | 338 | 2.0 | 8.0 | 0.00 | 0.00 | 0.00 | 47 | 1010.7 |
| 20260507204157 | 54 | 299 | 3.0 | 5.0 | 0.00 | 0.00 | 0.00 | 52 | 1010.7 |
| 20260507203655 | 54 | 47 | 3.0 | 5.0 | 0.00 | 0.00 | 0.00 | 52 | 1010.5 |
| 20260507203152 | 54 | 227 | 0.0 | 6.0 | 0.00 | 0.00 | 0.00 | 52 | 1010.9 |
| 20260507202647 | 56 | 341 | 3.0 | 7.0 | 0.00 | 0.00 | 0.00 | 48 | 1010.9 |
| 20260507202144 | 58 | 65 | 3.0 | 7.0 | 0.00 | 0.00 | 0.00 | 49 | 1010.7 |
| 20260507201639 | 55 | 33 | 3.0 | 9.0 | 0.00 | 0.00 | 0.00 | 52 | 1010.9 |
| 20260507201136 | 55 | 7 | 5.0 | 7.0 | 0.00 | 0.00 | 0.00 | 51 | 1010.8 |
| 20260507200632 | 56 | 74 | 1.0 | 6.0 | 0.00 | 0.00 | 0.00 | 52 | 1010.4 |
| 20260507200128 | 58 | 235 | 5.0 | 10.0 | 0.00 | 0.00 | 0.00 | 45 | 1010.3 |
| 20260507195625 | 56 | 207 | 2.0 | 11.0 | 0.00 | 0.00 | 0.00 | 50 | 1010.5 |
| 20260507195123 | 56 | 296 | 11.0 | 11.0 | 0.00 | 0.00 | 0.00 | 45 | 1010.5 |
| 20260507194619 | 55 | 226 | 2.0 | 11.0 | 0.00 | 0.00 | 0.00 | 45 | 1010.5 |
| 20260507194115 | 55 | 269 | 12.0 | 15.0 | 0.00 | 0.00 | 0.00 | 43 | 1010.8 |
| 20260507193612 | 57 | 181 | 5.0 | 14.0 | 0.00 | 0.00 | 0.00 | 42 | 1010.8 |
| 20260507193109 | 56 | 212 | 2.0 | 8.0 | 0.00 | 0.00 | 0.00 | 47 | 1010.9 |
| 20260507192605 | 56 | 227 | 3.0 | 15.0 | 0.00 | 0.00 | 0.00 | 45 | 1010.9 |
| 20260507192102 | 57 | 279 | 5.0 | 20.0 | 0.00 | 0.00 | 0.00 | 44 | 1010.9 |
| 20260507191557 | 57 | 239 | 5.0 | 10.0 | 0.00 | 0.00 | 0.00 | 43 | 1010.9 |
| 20260507191055 | 56 | 250 | 8.0 | 9.0 | 0.00 | 0.00 | 0.00 | 47 | 1010.7 |
| 20260507190552 | 56 | 111 | 0.0 | 6.0 | 0.00 | 0.00 | 0.00 | 50 | 1010.8 |
| 20260507190051 | 55 | 150 | 3.0 | 9.0 | 0.00 | 0.00 | 0.00 | 49 | 1010.9 |
| 20260507185549 | 57 | 346 | 2.0 | 8.0 | 0.00 | 0.00 | 0.00 | 47 | 1010.8 |
| 20260507185045 | 59 | 46 | 4.0 | 5.0 | 0.00 | 0.00 | 0.00 | 49 | 1010.9 |
| 20260507184543 | 56 | 251 | 2.0 | 5.0 | 0.00 | 0.00 | 0.00 | 48 | 1010.7 |
| 20260507184041 | 56 | 218 | 2.0 | 9.0 | 0.00 | 0.00 | 0.00 | 47 | 1010.9 |
| 20260507183536 | 55 | 40 | 2.0 | 14.0 | 0.00 | 0.00 | 0.00 | 49 | 1011.1 |
| 20260507183034 | 56 | 241 | 11.0 | 19.0 | 0.00 | 0.00 | 0.00 | 48 | 1010.9 |
| 20260507182530 | 56 | 244 | 2.0 | 12.0 | 0.00 | 0.00 | 0.00 | 48 | 1011.1 |
| 20260507182026 | 56 | 130 | 3.0 | 9.0 | 0.00 | 0.00 | 0.00 | 48 | 1011.2 |
| 20260507181523 | 57 | 263 | 3.0 | 9.0 | 0.00 | 0.00 | 0.00 | 52 | 1011.2 |
| 20260507181019 | 56 | 299 | 2.0 | 8.0 | 0.00 | 0.00 | 0.00 | 50 | 1011.2 |
| 20260507180516 | 59 | 42 | 4.0 | 13.0 | 0.00 | 0.00 | 0.00 | 47 | 1010.9 |
| 20260507180013 | 58 | 85 | 3.0 | 6.0 | 0.00 | 0.00 | 0.00 | 50 | 1011.0 |
| 20260507175509 | 56 | 78 | 2.0 | 5.0 | 0.00 | 0.00 | 0.00 | 51 | 1011.1 |
| 20260507175007 | 55 | 234 | 2.0 | 8.0 | 0.00 | 0.00 | 0.00 | 50 | 1011.0 |
| 20260507174504 | 55 | 273 | 1.0 | 15.0 | 0.00 | 0.00 | 0.00 | 47 | 1010.9 |
| 20260507174001 | 58 | 240 | 4.0 | 9.0 | 0.00 | 0.00 | 0.00 | 46 | 1011.2 |
| 20260507173458 | 56 | 248 | 2.0 | 8.0 | 0.00 | 0.00 | 0.00 | 48 | 1010.9 |
| 20260507172955 | 56 | 208 | 1.0 | 10.0 | 0.00 | 0.00 | 0.00 | 50 | 1011.1 |
| 20260507172451 | 56 | 120 | 2.0 | 17.0 | 0.00 | 0.00 | 0.00 | 47 | 1011.2 |
| 20260507171948 | 55 | 239 | 10.0 | 14.0 | 0.00 | 0.00 | 0.00 | 45 | 1011.2 |
| 20260507171443 | 57 | 240 | 9.0 | 13.0 | 0.00 | 0.00 | 0.00 | 45 | 1010.9 |
| 20260507170941 | 57 | 27 | 2.0 | 9.0 | 0.00 | 0.00 | 0.00 | 50 | 1011.2 |
| 20260507170437 | 58 | 127 | 1.0 | 5.0 | 0.00 | 0.00 | 0.00 | 45 | 1011.2 |
| 20260507165934 | 57 | 53 | 5.0 | 7.0 | 0.00 | 0.00 | 0.00 | 48 | 1011.3 |
| 20260507165430 | 57 | 57 | 5.0 | 9.0 | 0.00 | 0.00 | 0.00 | 49 | 1011.2 |
| 20260507164926 | 57 | 173 | 5.0 | 11.0 | 0.00 | 0.00 | 0.00 | 46 | 1011.1 |
| 20260507164423 | 55 | 228 | 3.0 | 6.0 | 0.00 | 0.00 | 0.00 | 49 | 1011.3 |
| 20260507163920 | 55 | 45 | 7.0 | 11.0 | 0.00 | 0.00 | 0.00 | 51 | 1011.2 |
| 20260507163418 | 55 | 16 | 3.0 | 7.0 | 0.00 | 0.00 | 0.00 | 50 | 1011.1 |
| 20260507162914 | 55 | 15 | 2.0 | 8.0 | 0.00 | 0.00 | 0.00 | 49 | 1011.1 |
| 20260507162409 | 56 | 58 | 4.0 | 7.0 | 0.00 | 0.00 | 0.00 | 49 | 1011.2 |
| 20260507161907 | 55 | 337 | 2.0 | 7.0 | 0.00 | 0.00 | 0.00 | 48 | 1011.7 |
| 20260507161403 | 55 | 260 | 2.0 | 6.0 | 0.00 | 0.00 | 0.00 | 44 | 1011.2 |
| 20260507160900 | 55 | 256 | 5.0 | 8.0 | 0.00 | 0.00 | 0.00 | 52 | 1011.5 |
| 20260507160355 | 56 | 225 | 1.0 | 4.0 | 0.00 | 0.00 | 0.00 | 50 | 1011.5 |
| 20260507155852 | 55 | 87 | 0.0 | 9.0 | 0.00 | 0.00 | 0.00 | 49 | 1011.3 |
| 20260507155348 | 55 | 255 | 2.0 | 7.0 | 0.00 | 0.00 | 0.00 | 45 | 1011.3 |
| 20260507154845 | 55 | 254 | 4.0 | 11.0 | 0.00 | 0.00 | 0.00 | 45 | 1011.0 |
| 20260507154342 | 57 | 85 | 3.0 | 5.0 | 0.00 | 0.00 | 0.00 | 48 | 1011.3 |
| 20260507153839 | 57 | 229 | 4.0 | 11.0 | 0.00 | 0.00 | 0.00 | 43 | 1011.2 |
| 20260507153335 | 57 | 236 | 2.0 | 13.0 | 0.00 | 0.00 | 0.00 | 48 | 1011.4 |
| 20260507152832 | 57 | 214 | 4.0 | 10.0 | 0.00 | 0.00 | 0.00 | 46 | 1011.1 |
| 20260507152328 | 59 | 56 | 2.0 | 7.0 | 0.00 | 0.00 | 0.00 | 46 | 1011.4 |
| 20260507151824 | 57 | 197 | 2.0 | 6.0 | 0.00 | 0.00 | 0.00 | 46 | 1011.5 |
| 20260507151321 | 55 | 239 | 6.0 | 12.0 | 0.00 | 0.00 | 0.00 | 46 | 1011.5 |
| 20260507150818 | 56 | 143 | 2.0 | 7.0 | 0.00 | 0.00 | 0.00 | 51 | 1011.5 |
| 20260507150314 | 55 | 254 | 9.0 | 12.0 | 0.00 | 0.00 | 0.00 | 47 | 1011.7 |
| 20260507145810 | 57 | 117 | 3.0 | 5.0 | 0.00 | 0.00 | 0.00 | 47 | 1011.5 |
| 20260507145307 | 57 | 311 | 0.0 | 6.0 | 0.00 | 0.00 | 0.00 | 49 | 1011.5 |
| 20260507144804 | 57 | 105 | 0.0 | 4.0 | 0.00 | 0.00 | 0.00 | 51 | 1011.5 |
| 20260507144302 | 54 | 235 | 5.0 | 9.0 | 0.00 | 0.00 | 0.00 | 49 | 1011.6 |
| 20260507143758 | 54 | 223 | 2.0 | 8.0 | 0.00 | 0.00 | 0.00 | 52 | 1011.6 |
| 20260507143255 | 57 | 208 | 2.0 | 5.0 | 0.00 | 0.00 | 0.00 | 48 | 1011.2 |
| 20260507142751 | 56 | 289 | 2.0 | 6.0 | 0.00 | 0.00 | 0.00 | 51 | 1011.4 |
| 20260507142248 | 55 | 307 | 2.0 | 11.0 | 0.00 | 0.00 | 0.00 | 49 | 1011.6 |
| 20260507141744 | 55 | 28 | 2.0 | 3.0 | 0.00 | 0.00 | 0.00 | 56 | 1011.3 |
| 20260507141242 | 54 | 261 | 4.0 | 6.0 | 0.00 | 0.00 | 0.00 | 58 | 1011.5 |
| 20260507140737 | 55 | 267 | 2.0 | 5.0 | 0.00 | 0.00 | 0.00 | 55 | 1011.5 |
| 20260507140235 | 55 | 183 | 0.0 | 5.0 | 0.00 | 0.00 | 0.00 | 58 | 1011.7 |
| 20260507135732 | 54 | 314 | 2.0 | 6.0 | 0.00 | 0.00 | 0.00 | 58 | 1011.7 |
| 20260507135230 | 55 | 117 | 2.0 | 4.0 | 0.00 | 0.00 | 0.00 | 56 | 1011.8 |
| 20260507134725 | 55 | 68 | 2.0 | 6.0 | 0.00 | 0.00 | 0.00 | 57 | 1012.0 |
| 20260507134222 | 53 | 148 | 0.0 | 7.0 | 0.00 | 0.00 | 0.00 | 63 | 1011.9 |
| 20260507133718 | 53 | 36 | 1.0 | 4.0 | 0.00 | 0.00 | 0.00 | 61 | 1012.0 |
| 20260507133215 | 52 | 232 | 4.0 | 7.0 | 0.00 | 0.00 | 0.00 | 61 | 1011.9 |
| 20260507132712 | 52 | 245 | 3.0 | 9.0 | 0.00 | 0.00 | 0.00 | 63 | 1011.8 |
| 20260507132209 | 51 | 219 | 4.0 | 9.0 | 0.00 | 0.00 | 0.00 | 62 | 1012.0 |
| 20260507131706 | 51 | 229 | 3.0 | 5.0 | 0.00 | 0.00 | 0.00 | 63 | 1011.8 |
| 20260507131203 | 51 | 255 | 6.0 | 6.0 | 0.00 | 0.00 | 0.00 | 63 | 1012.1 |
| 20260507130700 | 51 | 241 | 4.0 | 6.0 | 0.00 | 0.00 | 0.00 | 64 | 1012.0 |
| 20260507130157 | 50 | 244 | 3.0 | 7.0 | 0.00 | 0.00 | 0.00 | 66 | 1012.0 |
| 20260507125656 | 49 | 276 | 6.0 | 7.0 | 0.00 | 0.00 | 0.00 | 66 | 1012.0 |
| 20260507125153 | 49 | 238 | 3.0 | 7.0 | 0.00 | 0.00 | 0.00 | 68 | 1012.0 |
| 20260507124649 | 49 | 240 | 5.0 | 7.0 | 0.00 | 0.00 | 0.00 | 67 | 1012.1 |
| 20260507124147 | 48 | 261 | 2.0 | 9.0 | 0.00 | 0.00 | 0.00 | 68 | 1011.9 |
| 20260507123645 | 48 | 241 | 3.0 | 7.0 | 0.00 | 0.00 | 0.00 | 70 | 1011.9 |
| 20260507123142 | 48 | 230 | 3.0 | 5.0 | 0.00 | 0.00 | 0.00 | 70 | 1012.1 |
| 20260507122637 | 48 | 263 | 5.0 | 9.0 | 0.00 | 0.00 | 0.00 | 70 | 1012.0 |
| 20260507122133 | 47 | 245 | 3.0 | 8.0 | 0.00 | 0.00 | 0.00 | 71 | 1012.0 |
| 20260507121629 | 47 | 240 | 6.0 | 13.0 | 0.00 | 0.00 | 0.00 | 71 | 1011.8 |
| 20260507121125 | 47 | 251 | 6.0 | 10.0 | 0.00 | 0.00 | 0.00 | 71 | 1011.9 |
| 20260507120622 | 47 | 229 | 4.0 | 8.0 | 0.00 | 0.00 | 0.00 | 71 | 1012.0 |
| 20260507120118 | 47 | 303 | 1.0 | 7.0 | 0.00 | 0.00 | 0.00 | 71 | 1012.0 |
| 20260507115615 | 47 | 299 | 2.0 | 7.0 | 0.00 | 0.00 | 0.00 | 71 | 1011.7 |
| 20260507115111 | 47 | 256 | 2.0 | 7.0 | 0.00 | 0.00 | 0.00 | 71 | 1011.8 |
| 20260507114606 | 47 | 289 | 4.0 | 6.0 | 0.00 | 0.00 | 0.00 | 71 | 1011.8 |
| 20260507114104 | 46 | 198 | 2.0 | 9.0 | 0.00 | 0.00 | 0.00 | 72 | 1011.6 |
| 20260507113601 | 46 | 231 | 3.0 | 5.0 | 0.00 | 0.00 | 0.00 | 72 | 1011.6 |
| 20260507113058 | 45 | 305 | 3.0 | 7.0 | 0.00 | 0.00 | 0.00 | 73 | 1011.7 |
| 20260507112556 | 45 | 225 | 1.0 | 5.0 | 0.00 | 0.00 | 0.00 | 74 | 1011.8 |
| 20260507112052 | 44 | 218 | 2.0 | 3.0 | 0.00 | 0.00 | 0.00 | 74 | 1011.6 |
| 20260507111549 | 44 | 249 | 3.0 | 4.0 | 0.00 | 0.00 | 0.00 | 75 | 1011.6 |
| 20260507111046 | 44 | 245 | 2.0 | 3.0 | 0.00 | 0.00 | 0.00 | 76 | 1011.6 |
| 20260507110542 | 44 | 216 | 1.0 | 3.0 | 0.00 | 0.00 | 0.00 | 76 | 1011.7 |
| 20260507110039 | 44 | 249 | 1.0 | 2.0 | 0.00 | 0.00 | 0.00 | 75 | 1011.8 |
| 20260507105536 | 44 | 266 | 2.0 | 3.0 | 0.00 | 0.00 | 0.00 | 75 | 1011.7 |
| 20260507105032 | 44 | 263 | 3.0 | 5.0 | 0.00 | 0.00 | 0.00 | 75 | 1011.4 |
| 20260507104530 | 44 | 285 | 1.0 | 3.0 | 0.00 | 0.00 | 0.00 | 75 | 1011.3 |
| 20260507104026 | 44 | 234 | 1.0 | 2.0 | 0.00 | 0.00 | 0.00 | 75 | 1011.4 |
| 20260507103522 | 44 | 200 | 0.0 | 3.0 | 0.00 | 0.00 | 0.00 | 75 | 1011.4 |
| 20260507103019 | 44 | 252 | 2.0 | 3.0 | 0.00 | 0.00 | 0.00 | 74 | 1011.3 |
| 20260507102516 | 44 | 271 | 3.0 | 5.0 | 0.00 | 0.00 | 0.00 | 74 | 1011.3 |
| 20260507102012 | 44 | 112 | 1.0 | 3.0 | 0.00 | 0.00 | 0.00 | 74 | 1011.1 |
| 20260507101507 | 44 | 286 | 0.0 | 3.0 | 0.00 | 0.00 | 0.00 | 74 | 1011.2 |
| 20260507101004 | 44 | 0 | 0.0 | 4.0 | 0.00 | 0.00 | 0.00 | 74 | 1011.3 |
| 20260507100501 | 44 | 266 | 1.0 | 4.0 | 0.00 | 0.00 | 0.00 | 74 | 1011.4 |
| 20260507095959 | 44 | 211 | 0.0 | 4.0 | 0.00 | 0.00 | 0.00 | 74 | 1011.1 |
| 20260507095457 | 44 | 260 | 0.0 | 3.0 | 0.00 | 0.00 | 0.00 | 74 | 1011.1 |
| 20260507094953 | 44 | 259 | 2.0 | 4.0 | 0.00 | 0.00 | 0.00 | 73 | 1011.1 |
| 20260507094449 | 44 | 268 | 2.0 | 4.0 | 0.00 | 0.00 | 0.00 | 73 | 1011.3 |
| 20260507093947 | 44 | 262 | 2.0 | 5.0 | 0.00 | 0.00 | 0.00 | 73 | 1011.3 |
| 20260507093444 | 44 | 156 | 1.0 | 3.0 | 0.00 | 0.00 | 0.00 | 73 | 1011.1 |
| 20260507092943 | 44 | 186 | 2.0 | 5.0 | 0.00 | 0.00 | 0.00 | 73 | 1011.3 |
| 20260507092438 | 44 | 157 | 3.0 | 4.0 | 0.00 | 0.00 | 0.00 | 73 | 1011.6 |
| 20260507091935 | 44 | 122 | 0.0 | 3.0 | 0.00 | 0.00 | 0.00 | 72 | 1011.3 |
| 20260507091432 | 44 | 194 | 1.0 | 4.0 | 0.00 | 0.00 | 0.00 | 72 | 1011.3 |
| 20260507090927 | 44 | 227 | 0.0 | 3.0 | 0.00 | 0.00 | 0.00 | 72 | 1011.3 |
| 20260507090424 | 44 | 156 | 0.0 | 6.0 | 0.00 | 0.00 | 0.00 | 72 | 1011.5 |
| 20260507085920 | 44 | 212 | 0.0 | 4.0 | 0.00 | 0.00 | 0.00 | 72 | 1011.4 |
| 20260507085418 | 45 | 144 | 1.0 | 5.0 | 0.00 | 0.00 | 0.00 | 72 | 1011.6 |
| 20260507084915 | 45 | 189 | 1.0 | 5.0 | 0.00 | 0.00 | 0.00 | 72 | 1011.5 |
| 20260507084412 | 45 | 265 | 1.0 | 3.0 | 0.00 | 0.00 | 0.00 | 72 | 1011.3 |
| 20260507083909 | 45 | 224 | 1.0 | 2.0 | 0.00 | 0.00 | 0.00 | 72 | 1011.4 |
| 20260507083405 | 45 | 258 | 0.0 | 2.0 | 0.00 | 0.00 | 0.00 | 72 | 1011.5 |
| 20260507082901 | 45 | 231 | 1.0 | 3.0 | 0.00 | 0.00 | 0.00 | 71 | 1011.7 |
| 20260507082357 | 45 | 130 | 0.0 | 4.0 | 0.00 | 0.00 | 0.00 | 71 | 1011.6 |
| 20260507081855 | 45 | 283 | 0.0 | 4.0 | 0.00 | 0.00 | 0.00 | 71 | 1011.3 |
| 20260507081350 | 45 | 244 | 1.0 | 5.0 | 0.00 | 0.00 | 0.00 | 70 | 1011.4 |
| 20260507080847 | 45 | 230 | 1.0 | 2.0 | 0.00 | 0.00 | 0.00 | 71 | 1011.5 |
| 20260507080343 | 45 | 227 | 0.0 | 4.0 | 0.00 | 0.00 | 0.00 | 70 | 1011.6 |
| 20260507075839 | 45 | 240 | 2.0 | 4.0 | 0.00 | 0.00 | 0.00 | 71 | 1011.6 |
| 20260507075335 | 45 | 177 | 2.0 | 3.0 | 0.00 | 0.00 | 0.00 | 71 | 1011.4 |
| 20260507074832 | 44 | 252 | 0.0 | 4.0 | 0.00 | 0.00 | 0.00 | 71 | 1011.8 |
| 20260507074329 | 44 | 190 | 1.0 | 3.0 | 0.00 | 0.00 | 0.00 | 72 | 1011.6 |
| 20260507073826 | 43 | 304 | 0.0 | 2.0 | 0.00 | 0.00 | 0.00 | 73 | 1011.7 |
| 20260507073323 | 43 | 160 | 0.0 | 2.0 | 0.00 | 0.00 | 0.00 | 73 | 1011.6 |
| 20260507072820 | 44 | 147 | 0.0 | 3.0 | 0.00 | 0.00 | 0.00 | 72 | 1011.7 |
| 20260507072318 | 44 | 147 | 0.0 | 2.0 | 0.00 | 0.00 | 0.00 | 71 | 1011.6 |
| 20260507071815 | 44 | 202 | 0.0 | 2.0 | 0.00 | 0.00 | 0.00 | 71 | 1011.8 |
| 20260507071311 | 44 | 170 | 0.0 | 3.0 | 0.00 | 0.00 | 0.00 | 70 | 1011.5 |
| 20260507070808 | 44 | 202 | 0.0 | 2.0 | 0.00 | 0.00 | 0.00 | 72 | 1011.7 |
| 20260507070305 | 44 | 229 | 0.0 | 3.0 | 0.00 | 0.00 | 0.00 | 72 | 1011.7 |
| 20260507065802 | 44 | 190 | 0.0 | 3.0 | 0.00 | 0.00 | 0.00 | 72 | 1011.8 |
| 20260507065259 | 43 | 106 | 0.0 | 2.0 | 0.00 | 0.00 | 0.00 | 73 | 1011.8 |